This is the latest recevied weather packets stored in our database for station/object s59zo-6. If no packets are shown the sender has not sent any weather packets the latest 10 day(s).
| Time | Temp. | Humidity | Pressure | Rain* | Wind** | Luminosity | Snow |
|---|---|---|---|---|---|---|---|
| 1788541205 | 29.44° C | 41% | 1017 hPa | 0 mm | - | - | - |
| 1788540904 | 30° C | 41% | 1017.1 hPa | 0 mm | - | - | - |
| 1788540605 | 30° C | 40% | 1017.1 hPa | 0 mm | - | - | - |
| 1788540304 | 30.56° C | 40% | 1017.1 hPa | 0 mm | - | - | - |
| 1788540005 | 30.56° C | 40% | 1017 hPa | 0 mm | - | - | - |
| 1788539705 | 30.56° C | 40% | 1017.2 hPa | 0 mm | - | - | - |
| 1788539404 | 30.56° C | 40% | 1017.1 hPa | 0 mm | - | - | - |
| 1788539105 | 30.56° C | 39% | 1016.9 hPa | 0 mm | - | - | - |
| 1788538804 | 31.11° C | 39% | 1017.1 hPa | 0 mm | - | - | - |
| 1788538505 | 31.11° C | 39% | 1017 hPa | 0 mm | - | - | - |
| 1788538234 | 31.11° C | 40% | 1017.1 hPa | 0 mm | - | - | - |
| 1788537905 | 31.67° C | 37% | 1017.1 hPa | 0 mm | - | - | - |
| 1788537604 | 31.67° C | 37% | 1017.1 hPa | 0 mm | - | - | - |
| 1788537305 | 31.67° C | 37% | 1017 hPa | 0 mm | - | - | - |
| 1788537004 | 31.67° C | 36% | 1017.2 hPa | 0 mm | - | - | - |
| 1788536705 | 31.67° C | 36% | 1017.1 hPa | 0 mm | - | - | - |
| 1788536404 | 31.67° C | 35% | 1017.1 hPa | 0 mm | - | - | - |
| 1788536105 | 31.67° C | 36% | 1017.1 hPa | 0 mm | - | - | - |
| 1788535805 | 31.67° C | 35% | 1017.1 hPa | 0 mm | - | - | - |
| 1788535504 | 31.67° C | 35% | 1017.2 hPa | 0 mm | - | - | - |
| 1788535221 | 32.22° C | 35% | 1017.2 hPa | 0 mm | - | - | - |
| 1788534904 | 32.22° C | 35% | 1017.3 hPa | 0 mm | - | - | - |
| 1788534605 | 32.22° C | 36% | 1017.4 hPa | 0 mm | - | - | - |
| 1788534304 | 32.22° C | 35% | 1017.3 hPa | 0 mm | - | - | - |
| 1788534005 | 31.67° C | 36% | 1017.3 hPa | 0 mm | - | - | - |
* Rain latest hour (hover to see other rain measurements)
** Current wind speed in m/s (hover to see current wind gust speed)